Weather in Depok

Indonesia     6°21′56″S   106°49′15″E
temp.,
°C
wind,
m/s
gust,
m/s
humid.,
%
clouds,
%
prec.,
mm/h
press.,
hPa
HPBL,
m
22 october, fri
fri2201:00+28n1175100 5.1 1011244
04:00+27se1178100 0.3 1010327
07:00+28ese2274100 0.6 1013479
10:00+31ene336091 0.6 10131215
13:00+32nne535590 1.1 10101462
16:00+30nne436133 2.3 10101141
19:00+29ne2267100 3.6 1012690
22:00+28e2273100 1.6 1014358
23 october, sat
sat2301:00+27se1176100 3.1 1012199
04:00+27se2280100 0.2 1011212
07:00+27sse227659 0.2 1013310
10:00+31ene335727 0.0 10131144
13:00+32ne5553100 0.0 10101410
16:00+31nne5557100 0.0 1009889
19:00+29ne3465100 0.0 1011707
22:00+29ene236825 0.0 1013586
24 october, sun
sun2401:00+28ese117292 0.0 1011375
04:00+27s227629 0.0 1010262
07:00+28se227041 0.0 1012407
10:00+32ene225299 0.0 10121202
13:00+34nne434596 0.0 10091667
16:00+32n545387 0.0 1007925
19:00+31nnw225550 0.0 1010933
22:00+30nnw115885 0.0 1011755
25 october, mon
mon2501:00+29w226570 0.0 1009435
04:00+28wsw22716 0.0 1009355
07:00+28ssw116854 0.4 1011357
10:00+32nne11529 0.2 10101250
13:00+34n4244100 0.2 10071986
16:00+32nnw445169 0.0 10061223
19:00+31n225684 0.8 1008889
22:00+30nne115847 0.0 1010702
26 october, tue
tue2601:00+29ene226215 0.1 1008659
04:00+29e126591 0.0 1008538
07:00+29ese236561 0.0 1010868
10:00+32ne3351100 0.2 10091520
13:00+32nne535199 0.4 10071505
16:00+32nne325394 0.4 10061339
19:00+29nne226330 2.1 1008427
22:00+29nne116644 2.0 1010325